Miscellaneous Local Product
Issued by NWS North Platte, NE

Home | Current Version | Previous Version | Text Only | Print | Product List | Glossary On
Versions: 1 2 3 4 5 6 7 8 9 10 11 12 13 14 15 16 17 18 19 20 21 22 23 24 25 26 27 28 29 30 31 32 33 34 35 36 37 38 39 40 41 42 43 44 45 46 47 48 49 50
950
AXUS43 KLBF 040810
MISLBF


WESTERN AND NORTH CENTRAL NEBRASKA HOURLY WEATHER ROUNDUP
NATIONAL WEATHER SERVICE NORTH PLATTE NE
200 AM CST SUN DEC 04 2016

NOTE: "FAIR" INDICATES FEW OR NO CLOUDS BELOW 12,000 FEET WITH NO
SIGNIFICANT WEATHER AND/OR OBSTRUCTIONS TO VISIBILITY.

NOTE: STATIONS NOT REPORTING VARIABLES SUCH AS SKY/WEATHER OR
PRESSURE ARE PROVIDED BY RAWS AND APRS NETWORKS AND ARE NOT UNDER
NATIONAL WEATHER SERVICE QUALITY CONTROL.

...OBSERVATIONS IN AND NEAR THE EASTERN PANHANDLE OF NEBRASKA...

CITY           SKY/WX    TMP DP  RH WIND       PRES   REMARKS
PINE RIDGE     CLOUDY    28  20  71 NW6       29.95F WCI  22
CHADRON        MOCLDY    27  17  66 SW9       29.96F WCI  18
ALLIANCE       MOCLDY    29  17  61 W13       29.97F WCI  19
SIDNEY         CLEAR     24  13  62 W13       30.01S WCI  12
CRESCENT LAKE    N/A     27  17  66 W6          N/A  WCI  21
$$

...OBSERVATIONS IN NORTHERN NEBRASKA AND FAR SOUTHERN SOUTH DAKOTA...

CITY           SKY/WX    TMP DP  RH WIND       PRES   REMARKS
WINNER         FAIR      31  23  72 W8        29.91S WCI  23
VALENTINE      CLEAR     21  17  84 SW8       29.93S WCI  11
THEDFORD       PTCLDY    26  21  80 W6        29.97R WCI  19
AINSWORTH      PTCLDY    30  22  73 W8        29.93F WCI  23
O`NEILL        CLEAR     31  30  95 SW7       29.94F WCI  25
ORD            CLOUDY    29  26  89 CALM      29.97S
BROKEN BOW     CLEAR     30  28  92 CALM      29.96F
VALENTINE NWR    N/A     30  19  64 W7          N/A  WCI  23
BUTTE            N/A     28  24  86 S8          N/A  WCI  20
HALSEY           N/A     26  19  73 SW5         N/A  WCI  20
CHAMBERS         N/A     30  28  94 CALM        N/A
EWING            N/A     29  27  93 CALM        N/A
$$

...OBSERVATIONS IN SOUTHWEST NEBRASKA AND FAR NORTHEAST COLORADO...

CITY           SKY/WX    TMP DP  RH WIND       PRES   REMARKS
WRAY           FAIR      21  14  73 W5        30.03  WCI  15
HOLYOKE        FAIR      25  18  74 W9        30.03R WCI  15
IMPERIAL       PTCLDY    27  15  61 W12       30.02R WCI  17
OGALLALA       CLOUDY    27  18  67 CALM      30.01S
NORTH PLATTE   CLEAR     20  18  92 NW7       29.99S WCI  11
MCCOOK         CLEAR     24  19  81 W9        30.01S WCI  14
LEXINGTON      CLOUDY    29  28  95 W5        29.99S FOG     WCI  24
STAPLETON        N/A     23  20  87 CALM        N/A
GOTHENBURG       N/A     29  27  93 W3          N/A
CALLAWAY         N/A     27  25  92 W10         N/A  WCI  17
$$

...OBSERVATIONS IN CENTRAL LINCOLN COUNTY AREA...

CITY           SKY/WX    TMP DP  RH WIND       PRES   REMARKS
N.P. AIRPORT   CLEAR     20  18  92 NW7       29.99S WCI  11
N.P. DOWNTOWN    N/A     28  22  78 CALM        N/A
N.P. SOUTHEAST   N/A     28  21  75 NW3         N/A
N.P. HILLCREST   N/A     26  21  81 NW7         N/A  WCI  18
$$

...SOME OBSERVATIONS FROM AROUND THE REGION...

CITY           SKY/WX    TMP DP  RH WIND       PRES   REMARKS
LARAMIE        CLOUDY    17   8  67 W12       30.00F WCI   4
CHEYENNE       CLEAR     23   8  52 NW13      29.99F WCI  11
DENVER         CLEAR     23   8  52 SW8       30.03R WCI  14
AKRON          CLEAR     22  11  62 W10       30.03R WCI  11
SCOTTSBLUFF    CLEAR     20  12  71 NW8       30.01F WCI  10
RAPID CITY     CLEAR     28  21  75 W10       29.90F WCI  19
BISMARCK       CLOUDY    34  31  88 W10       29.77F WCI  26
PIERRE         CLEAR     31  24  75 SW8       29.86F WCI  23
SIOUX FALLS    CLOUDY    34  33  96 S15       29.95F WCI  24
OMAHA          LGT RAIN  34  31  88 S6        30.03S FOG     WCI  29
GRAND ISLAND   CLOUDY    33  32  96 W12       30.00S WCI  24
KANSAS CITY    RAIN      40  38  93 SE7       30.06F FOG
WICHITA        LGT RAIN  41  41 100 N3        30.03F FOG
OKLAHOMA CITY  LGT RAIN  44  43  96 CALM      30.01R
DALLAS         DRIZZLE   48  46  93 CALM      30.00R FOG
AMARILLO       CLOUDY    38  38 100 NW6       30.03S FOG     WCI  33
DODGE CITY     CLOUDY    34  34 100 NW8       30.04R FOG     WCI  27
HAYS           CLOUDY    32  31  96 W8        30.04S WCI  25
GOODLAND       CLEAR     22  13  68 W13       30.02F WCI  10
$$




USA.gov is the U.S. government's official web portal to all federal, state and local government web resources and services.